Wind_Speed
44 45 45 46 47 47 48 48 49 50 50 51 51 52 52 52 51 51 51 50 49 48 48 48 48 47 46 45 46 47 47 49 50 51 51 53 55 55 54 53 53 53 52 52 52 53 53 53 53 53 51 50 48 46 46 47 48 50 51 53 53 52 50 47 46 46 45 43 42 41 38 32 23 23 31 39 42 42 46 46 45 47 47 50 52 50 47 45
45 45 46 47 48 48 49 49 50 51 51 52 52 53 53 53 53 53 53 52 51 50 49 48 49 49 48 47 46 45 46 47 48 49 49 52 55 55 54 54 54 54 53 52 51 52 52 52 53 54 54 53 50 48 47 46 47 49 49 50 49 48 47 45 45 45 44 43 41 40 37 30 22 23 31 39 45 49 49 47 49 52 49 49 49 45 42 43
45 46 47 48 49 49 50 51 51 52 52 53 53 54 54 54 54 54 54 54 53 53 51 50 49 49 50 50 48 46 45 46 47 48 49 51 53 54 55 55 54 55 54 52 51 51 51 52 53 54 55 55 53 51 49 48 48 47 47 47 43 41 44 44 44 44 42 41 40 39 35 29 29 32 38 42 47 51 48 46 51 51 46 45 44 41 39 39
47 47 48 49 49 50 51 52 52 53 54 54 54 55 55 55 55 55 55 55 55 55 54 52 50 49 50 50 51 49 47 46 46 47 49 51 52 52 54 55 54 54 54 53 51 50 50 51 52 53 55 55 55 54 52 50 49 48 47 45 39 38 40 39 40 41 40 41 39 36 28 25 34 39 40 43 47 48 44 44 47 44 42 42 41 40 38 37
48 48 49 50 51 51 52 52 53 53 54 55 55 56 56 57 57 57 56 56 56 56 56 55 53 51 50 50 51 51 50 48 47 47 49 50 51 51 52 53 54 54 54 53 52 51 51 51 51 52 53 54 55 55 54 52 50 49 48 44 39 39 39 35 35 37 37 38 36 34 28 26 35 41 40 44 47 45 42 41 40 38 39 39 37 37 36 35
48 49 50 50 51 52 53 53 54 54 55 55 55 56 57 57 58 58 58 58 57 57 57 56 55 54 52 51 51 52 51 51 51 49 48 50 50 50 50 52 53 54 54 54 53 52 51 51 51 51 51 52 53 54 53 52 51 51 48 45 42 41 39 34 34 35 34 34 31 30 33 33 37 43 45 47 45 42 40 37 36 38 39 37 36 36 34 33
50 50 51 52 53 53 54 54 54 55 55 56 56 57 57 58 58 59 59 59 59 58 58 57 56 55 55 54 52 52 52 52 52 50 49 49 49 50 50 51 52 53 54 53 53 52 51 51 51 50 50 51 51 51 52 51 51 51 49 47 45 43 40 36 34 34 33 34 33 31 36 41 43 47 49 46 42 42 41 35 35 38 39 39 38 37 35 33
52 52 53 54 54 55 55 56 56 56 56 56 57 57 57 58 58 59 60 60 60 60 59 58 57 56 57 56 54 54 52 50 51 52 50 49 49 50 51 51 51 52 52 53 52 52 52 52 51 50 49 49 49 49 50 50 51 51 50 48 47 45 42 39 37 35 33 36 38 39 41 44 46 47 45 36 33 40 40 33 36 40 41 42 40 38 38 35
52 53 53 54 54 55 55 56 57 57 57 57 58 58 58 58 59 59 60 60 61 61 60 60 59 57 57 57 57 56 50 48 52 55 52 50 50 51 51 51 51 51 51 52 52 52 53 52 51 50 49 47 47 47 48 49 50 50 49 48 48 47 43 41 39 36 35 37 40 42 43 43 42 39 35 29 28 36 35 30 34 39 43 44 41 40 39 36
53 53 54 54 54 54 54 55 56 56 57 58 58 58 59 59 59 59 60 60 61 61 62 61 61 60 59 58 59 56 49 50 55 56 54 51 50 49 50 51 51 51 51 51 51 51 51 51 50 49 49 48 47 47 47 48 48 47 47 48 48 47 45 43 42 38 37 39 42 43 43 42 38 34 31 29 31 33 31 29 29 32 42 45 42 41 39 35
53 54 54 54 54 54 54 54 54 55 56 56 57 58 59 59 59 60 60 60 60 61 62 62 62 61 60 60 60 54 49 53 56 55 55 51 47 47 49 50 51 51 50 51 51 50 50 50 50 50 50 49 48 47 46 46 46 46 47 48 48 47 46 44 43 42 41 43 45 44 43 41 38 36 32 29 31 31 28 30 27 29 39 42 43 44 40 36
55 54 54 54 54 54 54 54 54 54 54 55 56 56 57 58 58 59 60 60 60 61 61 62 62 61 61 60 58 52 51 56 57 57 56 50 46 47 49 49 50 50 49 49 49 49 48 49 50 51 51 50 48 47 45 44 45 47 47 48 48 48 48 46 44 44 44 45 44 44 45 41 37 35 32 29 31 29 28 29 26 29 37 38 42 46 42 40
55 54 54 53 52 52 52 53 53 53 54 54 54 55 55 56 57 58 59 60 60 61 61 61 61 61 61 59 55 52 53 56 58 58 57 50 46 48 49 48 48 48 47 47 47 47 48 49 50 51 51 50 49 47 44 43 45 46 47 47 49 50 49 46 45 45 46 45 43 47 46 39 34 31 31 31 30 29 28 28 26 30 38 38 40 43 43 43
54 53 52 51 50 50 50 50 51 51 52 53 53 54 54 55 56 57 57 58 59 61 61 61 61 61 61 57 52 51 54 56 58 57 55 50 46 48 51 50 49 48 47 47 47 47 47 48 50 51 52 51 49 48 45 44 46 45 46 49 51 52 49 46 46 47 47 45 44 48 46 38 34 31 31 31 31 29 27 29 29 34 40 37 37 40 43 44
53 52 51 51 50 49 49 48 49 50 51 52 53 54 55 55 56 56 57 58 58 59 60 60 60 60 62 56 49 52 55 54 55 55 52 50 47 47 50 50 49 49 49 49 48 48 48 48 49 50 51 51 50 49 48 47 47 47 48 52 52 51 48 46 47 46 45 44 44 47 44 39 36 33 30 30 31 29 28 31 33 38 39 35 36 38 38 39
52 51 51 50 50 50 49 49 48 49 49 50 51 53 55 57 57 57 57 57 58 58 59 58 59 60 61 55 48 51 54 50 52 54 52 52 49 47 50 50 48 49 50 49 48 48 48 49 49 49 49 50 51 50 50 50 50 50 51 52 51 49 48 46 45 42 41 42 44 45 42 38 35 32 29 30 33 30 29 33 36 38 36 35 37 35 32 33
52 51 50 50 49 49 48 48 47 47 48 48 49 50 53 55 57 58 59 59 58 57 57 57 58 60 59 54 48 49 51 49 51 55 53 52 49 47 49 51 49 49 50 49 49 48 48 49 50 50 49 50 51 51 52 53 53 52 52 51 49 48 47 45 41 39 38 41 43 42 39 37 35 31 28 31 34 31 30 34 37 37 35 35 36 31 27 30
51 50 49 48 47 47 46 46 45 45 45 45 46 47 49 52 54 56 58 59 58 57 57 57 58 58 57 54 50 50 51 51 52 54 53 51 49 48 49 50 49 50 51 51 50 50 49 50 50 50 51 51 52 54 56 55 53 52 51 49 47 45 45 42 38 35 36 39 39 40 38 36 34 31 28 30 33 32 31 34 37 37 35 32 32 30 27 27
50 50 49 49 48 47 46 46 46 46 45 45 45 45 46 48 50 52 55 56 57 58 58 58 58 57 56 56 54 52 51 51 53 54 53 51 49 49 49 49 51 52 52 53 52 51 50 50 51 52 53 53 53 54 54 53 51 49 47 45 43 43 41 38 35 34 36 38 38 38 39 35 32 31 28 28 31 33 34 33 35 38 36 31 28 28 28 27
52 52 51 51 49 48 47 46 46 47 46 46 45 45 45 46 47 49 51 52 53 56 57 58 58 56 56 57 55 53 53 53 55 55 53 51 48 49 49 50 51 53 53 53 52 51 50 51 52 53 52 51 50 50 51 50 49 47 46 44 42 41 39 36 34 34 34 37 38 37 37 34 32 30 27 27 30 34 36 34 33 36 36 33 27 24 27 28
54 53 51 50 48 47 46 45 45 45 45 45 46 46 45 46 47 48 49 48 49 53 55 56 58 57 56 58 56 53 54 54 54 55 54 52 50 49 50 50 52 53 53 52 51 50 51 52 52 50 48 47 47 47 48 48 47 47 47 44 41 40 38 34 34 31 30 36 38 35 34 34 33 30 26 27 31 33 35 34 34 35 36 34 27 22 25 28
54 52 49 47 46 45 45 45 44 44 44 45 46 46 46 47 47 48 49 47 45 49 52 53 56 56 55 57 57 54 53 53 53 53 52 53 52 50 50 50 51 51 52 52 53 52 53 52 50 47 46 45 45 46 48 47 47 48 47 44 41 39 36 35 33 29 28 34 37 35 34 33 31 28 26 28 32 33 34 33 33 34 34 33 29 24 25 28
53 51 49 46 45 44 44 45 45 45 45 45 45 46 47 48 48 49 49 47 43 43 48 50 51 55 55 55 57 56 52 53 54 52 51 51 50 50 50 49 49 50 52 53 53 53 52 50 47 46 45 45 46 47 48 48 48 48 46 44 42 40 37 35 32 28 28 32 34 32 33 33 29 26 27 31 33 33 34 33 32 32 32 31 29 26 24 26
53 51 50 48 46 45 44 45 45 44 44 43 44 45 47 48 48 48 48 46 41 38 44 49 48 50 52 51 55 56 53 52 53 52 52 50 49 50 50 49 48 49 50 50 50 50 49 46 43 43 43 44 45 46 47 47 47 47 45 44 42 39 38 33 28 27 29 31 32 30 31 33 31 26 27 33 35 35 35 35 33 31 30 31 29 24 22 23
53 51 50 49 47 45 44 43 43 42 42 43 45 46 45 44 42 43 43 41 37 34 39 45 45 46 48 48 52 55 53 52 52 51 52 51 49 49 50 49 49 48 47 48 49 49 47 44 41 41 42 42 44 45 46 46 46 45 44 44 41 37 35 29 25 26 29 31 32 31 30 32 33 27 28 35 36 36 36 34 32 30 31 33 29 23 20 20
51 48 47 45 44 41 40 41 41 41 42 42 41 38 36 33 31 32 34 33 30 29 33 39 41 42 44 45 47 52 51 48 48 50 52 52 50 49 50 50 48 47 46 47 48 49 48 45 42 41 42 42 43 44 44 45 46 46 44 41 38 35 33 27 24 25 27 28 30 30 30 31 33 29 29 37 39 37 36 34 33 32 33 34 29 23 20 20
46 44 41 39 38 37 36 37 38 39 36 34 32 27 25 24 23 23 25 23 19 18 24 31 35 36 38 41 45 49 48 45 48 50 49 50 51 50 51 50 48 47 47 47 50 49 47 46 44 43 42 42 44 44 44 46 46 44 40 38 36 34 34 30 28 28 26 24 29 32 33 32 33 32 31 37 39 38 37 35 34 35 35 34 32 26 22 23
42 39 34 32 31 31 30 31 33 32 28 25 23 19 16 15 17 19 16 10 8 9 14 21 28 32 34 39 43 46 46 45 47 48 48 51 52 51 51 50 49 48 47 48 49 48 47 47 46 44 43 44 44 43 43 44 44 40 37 37 36 34 34 32 33 31 27 24 28 34 38 37 35 33 32 36 37 36 37 35 35 35 34 34 32 25 22 25
39 34 29 26 25 26 29 29 27 23 18 14 12 9 8 8 11 13 7 9 13 10 7 11 19 26 30 34 39 43 44 44 45 47 50 50 50 50 50 50 49 48 47 47 48 47 47 46 44 43 43 43 41 39 40 41 42 38 36 37 36 34 33 33 37 34 30 32 33 36 41 43 38 32 31 37 38 36 35 33 33 33 33 33 29 22 20 24
37 32 28 25 23 27 31 27 19 12 9 7 7 5 4 4 5 5 10 15 14 12 9 5 9 17 25 32 36 39 42 44 46 50 51 48 48 49 49 51 51 49 47 46 48 48 45 43 43 43 42 40 37 36 37 39 39 35 35 38 38 36 33 34 40 36 33 39 39 37 39 40 37 32 31 37 38 34 29 26 27 29 30 30 25 19 19 22
37 32 31 27 23 27 32 26 15 11 10 9 8 6 1 2 5 8 12 10 7 9 11 5 6 12 21 30 35 36 40 45 47 50 51 50 49 49 50 52 52 51 49 48 49 47 44 43 43 43 42 38 36 35 36 37 36 35 37 41 41 38 35 37 42 41 37 39 37 33 33 33 35 33 30 34 36 32 25 21 23 25 25 24 23 20 20 21
40 35 33 29 25 26 30 27 20 17 16 15 13 12 13 13 13 12 9 6 4 3 8 9 11 12 17 25 33 37 40 45 48 50 51 51 51 50 50 51 50 51 51 49 48 47 47 45 43 43 42 39 38 37 36 37 37 38 41 44 43 41 42 43 46 46 42 37 34 32 31 31 34 31 24 29 36 32 23 19 22 23 19 18 20 20 21 21
42 38 34 31 29 29 31 30 27 26 25 24 23 20 19 18 16 17 14 9 7 3 4 12 16 13 14 22 31 37 40 44 48 50 50 50 50 50 48 49 50 49 49 48 48 48 48 46 43 43 42 41 40 39 40 41 42 43 44 45 46 47 48 48 49 48 43 38 36 32 31 35 37 28 20 27 33 30 22 17 20 22 18 17 17 19 21 22
40 38 35 34 32 31 31 30 28 27 27 27 26 24 23 21 21 21 14 9 9 6 2 12 16 10 11 22 34 38 39 43 48 50 51 50 50 50 50 50 50 49 48 49 49 49 48 47 46 45 44 43 41 40 40 40 42 44 44 43 46 50 50 50 49 46 41 41 40 34 34 40 39 28 19 21 28 28 24 20 21 25 25 22 18 19 22 21
34 32 31 32 32 32 32 31 30 29 27 27 26 26 26 25 23 20 13 10 9 5 8 12 12 9 11 21 34 38 37 41 47 49 51 51 50 50 50 49 49 49 50 49 48 48 47 46 45 44 44 42 40 39 39 38 40 41 40 40 45 49 47 47 48 43 39 41 43 41 39 36 32 26 18 16 22 26 27 25 24 27 31 29 23 20 20 19
32 28 27 27 29 30 31 31 31 30 29 26 23 23 25 24 20 16 14 13 8 9 12 12 13 13 14 21 33 37 37 39 43 46 49 50 50 49 48 48 48 49 49 48 47 47 44 43 42 40 40 38 36 36 36 37 39 39 41 45 45 41 37 41 45 44 41 39 41 44 40 31 28 26 19 17 21 26 29 29 27 28 31 30 25 21 19 18
32 29 26 24 24 26 27 27 29 29 29 26 20 19 21 20 16 15 16 13 8 11 12 12 16 16 15 22 32 35 35 35 37 42 46 49 49 49 49 48 47 47 47 46 44 43 42 39 36 35 37 37 33 31 31 34 37 39 43 45 42 36 33 37 40 44 45 41 39 41 37 29 29 28 24 23 26 30 30 30 30 32 30 23 19 21 20 18
29 28 27 25 23 23 23 25 27 27 27 24 20 19 20 20 19 19 17 12 9 11 11 11 17 19 15 23 32 31 30 32 34 38 43 47 48 49 49 48 46 45 45 44 41 39 38 30 27 31 35 36 34 31 31 35 38 39 41 42 42 40 37 34 34 41 48 46 39 38 36 31 28 29 29 29 32 33 31 30 35 38 31 19 14 16 18 17
28 26 26 26 24 23 23 24 24 24 24 22 22 23 23 24 24 22 16 10 11 11 11 11 18 20 17 26 34 31 27 25 29 37 41 43 46 47 48 48 45 42 44 44 39 35 35 28 27 32 33 34 37 36 34 37 40 39 39 43 45 42 37 32 31 33 42 47 43 36 36 36 31 28 30 31 34 36 34 35 37 37 32 23 15 13 15 16
30 27 28 29 28 27 27 26 25 25 24 24 25 26 25 24 22 19 10 12 14 13 13 13 17 17 17 28 34 33 28 17 20 35 38 39 43 44 46 47 44 40 43 44 38 34 35 33 32 34 35 37 40 40 38 36 39 42 42 47 49 44 36 33 32 27 28 39 45 39 35 36 35 32 30 30 32 36 37 38 38 36 34 29 23 19 18 18
30 29 30 31 31 30 30 29 26 25 26 26 27 27 26 24 20 15 5 13 15 14 16 15 14 14 20 30 32 32 29 17 18 32 34 36 40 42 45 46 44 41 42 42 39 36 35 36 34 32 35 40 38 35 37 36 37 41 45 48 50 47 40 36 34 30 25 27 36 41 38 33 31 32 31 31 32 35 36 37 36 35 33 30 27 24 23 23
29 30 30 30 31 29 29 30 27 24 24 25 28 27 26 24 18 11 2 11 14 15 17 15 14 16 24 32 32 30 26 18 21 30 30 33 38 39 42 45 44 44 43 40 39 37 34 36 36 29 28 34 31 26 30 33 32 36 43 45 44 46 45 41 35 30 26 23 22 28 34 33 30 29 29 31 33 34 36 37 37 36 33 31 29 27 24 23
27 28 28 29 30 28 27 29 27 24 23 22 25 25 22 18 13 7 3 8 12 14 15 14 16 18 23 30 31 27 23 19 25 30 27 30 37 37 40 45 46 45 44 40 39 38 32 32 35 27 19 22 26 26 27 30 29 32 42 44 41 43 47 42 33 24 21 20 15 16 23 31 33 29 28 30 31 33 36 38 39 39 37 34 34 31 24 21
25 26 26 27 27 26 25 25 24 24 23 21 20 20 19 17 12 8 6 8 10 13 13 14 16 17 20 27 29 25 21 21 26 29 23 25 35 37 38 45 47 46 44 39 38 39 31 27 32 30 25 25 29 35 37 37 34 33 39 43 40 39 41 41 34 24 19 20 19 19 20 25 32 32 29 29 31 33 34 33 34 35 34 33 34 33 28 25
24 25 26 25 25 25 24 23 22 23 23 22 21 20 20 20 15 9 9 9 10 13 14 13 15 17 20 25 26 24 23 24 26 27 22 21 32 35 37 47 49 46 44 35 33 36 29 26 32 33 31 31 34 41 46 44 41 38 41 42 38 32 32 36 37 30 24 24 23 24 21 22 29 35 34 32 32 32 30 29 30 30 30 30 31 30 28 28
22 23 25 25 25 25 23 21 21 21 21 21 22 21 19 19 16 12 12 11 11 14 15 15 17 21 25 26 25 26 26 24 24 26 24 21 28 31 36 47 49 46 41 30 27 31 28 27 33 32 29 28 29 34 40 42 41 40 42 44 39 32 27 29 35 35 29 25 25 27 25 22 24 30 35 36 35 35 33 31 29 27 25 24 24 24 25 26
20 19 22 24 25 25 23 21 19 20 20 19 19 19 17 16 17 14 11 10 11 14 17 19 21 24 25 25 25 26 25 25 26 26 24 20 24 29 34 45 48 43 38 29 26 31 29 28 33 30 26 24 23 23 27 34 38 38 40 44 40 35 30 28 31 35 33 29 26 28 30 27 23 25 30 33 33 34 34 34 31 27 22 18 17 18 19 22
19 19 20 22 24 24 23 21 19 18 18 17 17 16 16 16 16 15 12 10 12 17 20 22 22 21 20 21 25 26 25 27 28 27 26 24 26 28 31 42 48 41 35 31 30 32 31 29 30 28 24 22 20 18 20 26 34 36 37 41 40 37 35 31 30 31 32 31 28 28 30 30 28 26 25 26 26 25 26 28 30 31 28 24 21 19 19 21
19 18 19 20 22 22 22 21 19 17 15 14 14 13 13 14 13 12 10 10 12 16 20 21 19 17 18 20 26 28 25 27 28 28 28 29 30 29 30 38 47 44 38 35 32 33 33 29 27 25 24 22 17 15 15 18 27 36 35 32 34 38 38 35 34 33 32 32 31 31 31 31 32 31 27 26 25 22 21 20 20 24 27 26 25 24 24 24
18 16 16 18 19 21 21 19 18 17 15 13 12 11 11 12 12 11 10 12 13 16 19 20 15 14 17 23 29 30 25 24 26 28 30 31 32 33 32 38 47 49 45 39 35 35 34 30 26 25 25 25 21 16 16 14 18 31 36 31 29 35 39 36 35 35 35 34 34 35 33 33 36 36 32 29 27 24 22 19 16 18 20 21 22 23 24 25
19 15 14 15 16 17 18 17 16 15 14 12 10 9 10 10 11 10 10 13 15 16 18 15 9 8 14 22 28 28 24 22 23 24 27 30 32 34 32 35 44 48 47 44 38 35 33 31 30 28 26 28 27 23 22 19 16 23 32 33 30 32 37 38 37 36 38 36 34 35 35 35 37 37 35 32 29 26 25 23 21 19 19 19 19 20 21 23
21 17 14 13 13 14 15 14 14 14 13 12 10 9 8 7 8 7 8 10 12 15 14 9 8 9 11 17 22 22 22 22 20 18 19 22 25 29 30 32 40 46 47 46 42 36 33 31 30 29 29 29 30 28 28 26 24 23 27 30 32 31 35 41 41 38 38 38 35 35 36 36 35 35 33 31 29 28 27 26 26 25 22 21 20 20 21 22
Wind_Direction
274 273 272 272 271 270 269 269 268 267 266 264 263 261 259 258 257 257 258 258 258 257 256 254 253 251 250 250 249 249 248 247 248 247 246 245 244 243 242 241 242 241 240 240 240 240 241 240 240 241 241 241 241 241 241 241 242 242 241 241 241 241 242 244 245 247 248 249 251 248 248 249 247 252 256 254 250 244 241 242 243 244 249 255 260 269 275 274
275 274 273 272 271 270 269 269 268 267 266 266 265 263 261 259 257 255 255 255 255 255 255 254 254 253 251 250 250 249 248 247 247 247 246 245 244 243 242 240 240 241 240 239 239 239 240 240 239 240 240 240 240 240 240 241 241 242 242 241 240 241 243 244 245 247 248 250 250 249 249 242 232 241 246 248 249 244 242 244 246 248 255 262 265 269 270 270
277 275 274 273 271 270 269 268 267 267 266 265 265 264 263 262 259 257 255 253 253 253 253 252 252 251 251 250 250 249 248 247 247 246 245 245 244 242 241 240 239 239 239 239 239 239 239 239 238 238 238 238 238 238 239 239 241 242 243 242 240 241 243 243 244 245 246 248 247 248 250 240 229 237 242 245 250 249 246 247 250 254 260 264 265 265 264 265
278 277 276 274 273 271 270 268 267 266 265 264 264 263 263 262 261 259 257 255 253 252 251 251 250 249 249 249 248 248 248 247 246 244 243 244 244 242 241 240 239 238 239 239 238 238 238 239 238 238 238 237 237 237 237 238 240 242 243 243 242 242 242 242 243 244 244 245 244 244 245 237 232 236 243 248 251 252 251 249 253 258 257 257 259 261 262 264
280 278 277 276 274 273 271 270 268 266 265 264 263 262 261 261 260 259 258 256 254 252 251 250 250 249 248 247 247 246 246 245 245 244 242 243 243 242 241 241 239 238 238 238 237 237 237 238 238 238 238 238 237 237 237 237 239 241 242 243 243 243 242 239 241 243 242 243 244 242 232 225 235 238 240 247 250 250 252 253 257 259 256 254 255 257 260 262
279 278 277 276 274 273 272 270 269 267 265 264 263 261 260 260 259 259 258 257 255 253 252 250 249 249 249 247 246 245 244 244 244 243 241 242 243 243 242 240 239 238 237 237 236 236 236 237 238 238 238 238 238 238 237 237 238 240 242 242 242 242 242 239 238 239 239 239 237 237 232 225 236 242 239 242 250 255 258 258 258 259 259 259 258 258 259 260
279 278 277 276 274 273 272 270 269 268 266 265 263 261 260 259 258 258 257 256 255 254 253 251 249 248 248 247 246 246 244 243 244 243 241 240 241 242 241 240 238 237 237 236 236 235 236 236 237 238 238 238 238 237 237 237 237 239 240 241 241 241 241 240 239 237 237 237 228 224 228 226 229 238 243 246 252 260 263 263 261 259 257 258 258 259 259 258
282 280 279 277 276 274 273 271 269 268 266 265 264 262 261 259 258 257 256 255 255 254 253 252 250 247 247 247 246 246 245 245 245 242 239 237 237 239 239 239 238 237 236 236 235 235 234 235 236 237 237 237 237 237 237 237 237 237 238 240 241 240 239 238 239 237 237 239 234 227 228 230 230 237 247 252 253 258 260 257 255 254 253 254 256 258 259 258
286 284 282 280 278 276 274 272 271 269 267 265 264 263 261 260 258 257 255 254 254 254 253 252 251 248 247 246 246 245 246 247 245 242 239 236 235 236 237 238 237 236 235 235 235 234 233 233 234 235 236 237 237 236 236 236 236 237 237 238 239 239 237 237 236 236 237 239 239 236 236 239 240 243 251 254 250 253 257 255 253 252 251 253 253 255 258 259
289 287 285 283 281 279 276 274 272 270 268 266 265 263 261 260 259 258 256 255 253 252 252 251 250 249 247 246 246 245 245 245 244 243 241 238 236 235 236 236 236 235 233 233 234 233 233 232 233 234 235 235 235 235 234 235 236 236 236 237 238 238 237 236 235 233 234 237 240 240 240 243 246 247 247 246 247 250 257 261 262 256 250 250 251 252 254 257
291 290 288 286 284 282 280 277 275 272 270 268 266 264 262 260 259 258 257 255 254 252 251 250 249 248 247 246 245 245 244 244 244 244 242 239 237 236 236 236 236 234 233 232 232 232 232 231 232 232 233 233 233 233 233 233 233 233 234 235 236 236 235 235 234 232 231 235 240 242 242 242 243 245 243 242 247 251 256 259 263 259 251 250 249 248 249 252
295 293 291 289 287 285 282 280 278 275 272 270 267 265 263 261 259 258 256 255 254 253 251 250 249 248 247 245 244 244 242 243 243 243 242 239 235 234 234 236 237 236 234 232 232 232 231 230 230 230 231 231 232 232 232 232 231 232 233 234 234 234 234 233 233 233 232 234 239 243 244 240 238 242 245 246 247 250 252 255 257 252 251 251 248 246 246 249
298 296 294 291 289 286 283 280 278 276 274 271 269 267 264 262 260 258 256 255 253 252 251 250 249 248 246 244 244 243 241 242 242 241 242 238 233 232 231 231 233 234 234 232 231 231 230 229 229 229 230 230 230 230 230 230 230 231 232 234 235 234 233 231 231 232 233 234 235 241 244 242 240 242 245 246 247 247 248 252 249 242 246 251 250 247 244 245
300 298 296 293 289 286 282 279 276 273 271 269 268 266 264 262 260 258 256 254 253 252 250 250 249 248 245 242 243 242 240 239 240 240 239 237 231 231 231 228 227 228 229 230 229 229 229 229 228 228 228 228 228 228 226 226 228 229 230 233 235 235 233 230 229 231 234 234 234 240 245 244 243 242 243 245 247 246 246 248 242 236 245 252 253 250 245 243
302 299 297 294 291 287 284 280 276 273 269 267 264 263 261 260 259 257 255 254 252 251 250 249 248 247 245 241 240 241 239 238 239 238 235 233 229 228 231 229 226 225 225 226 226 226 226 226 227 227 227 227 226 227 225 225 225 225 226 229 232 235 235 232 230 231 234 237 237 241 245 245 243 242 242 244 246 245 245 246 243 242 250 257 256 254 252 251
303 301 298 296 293 291 288 284 280 277 273 269 266 263 260 258 257 255 254 252 251 250 249 248 248 246 244 241 239 240 239 236 235 235 232 231 228 225 227 228 225 224 224 224 224 224 225 225 225 225 226 226 226 226 226 225 225 225 226 228 230 233 234 234 233 232 233 236 239 242 244 245 243 241 241 242 243 243 244 246 246 248 253 255 255 257 258 257
305 303 300 298 296 293 291 288 285 281 278 274 270 266 263 259 257 255 253 251 249 248 247 246 247 245 242 242 240 238 237 233 232 234 231 228 227 223 224 225 223 222 223 222 222 222 223 224 224 223 223 224 224 225 225 226 226 226 226 228 230 232 234 235 235 233 231 233 240 244 244 243 242 239 237 241 242 241 243 246 247 249 252 252 255 260 261 257
307 305 302 300 297 295 293 291 288 285 281 278 274 270 267 263 259 256 253 251 248 247 245 244 244 243 241 240 238 234 234 231 230 231 230 226 224 222 222 223 221 220 220 220 221 221 221 222 223 223 222 222 222 223 224 225 226 228 228 229 230 232 234 236 236 234 234 233 238 245 245 241 240 238 234 240 244 242 242 245 247 248 248 249 253 256 258 259
309 306 303 301 299 296 294 292 290 287 284 281 278 274 271 268 263 259 255 251 248 246 244 242 241 240 239 238 236 233 231 229 228 228 228 226 223 222 221 220 219 219 219 219 219 219 220 221 221 222 222 222 222 223 225 225 226 228 231 231 232 233 235 236 235 233 234 236 234 239 245 242 238 236 232 238 246 245 243 242 246 249 248 247 250 252 253 254
309 306 303 301 299 297 295 292 290 287 285 283 280 277 274 272 268 263 258 253 249 246 243 242 239 236 237 238 236 232 230 227 226 225 224 223 221 221 220 219 218 218 219 219 219 219 219 220 222 223 222 221 222 223 225 225 225 227 229 230 230 233 234 234 234 229 230 238 236 234 242 245 240 233 230 236 243 246 246 244 244 248 251 251 249 251 255 254
310 307 304 302 300 297 295 291 288 287 285 284 282 280 277 274 271 266 260 255 252 248 243 241 238 234 234 238 235 232 230 228 227 224 222 220 218 218 219 219 218 218 219 218 217 217 219 221 222 223 222 222 222 222 224 224 224 225 226 227 227 229 231 232 234 229 224 237 242 237 237 242 241 233 226 233 238 242 248 247 244 245 250 254 253 252 255 255
314 310 307 304 301 298 294 290 287 286 285 285 284 283 281 279 275 270 262 255 252 251 245 239 237 233 232 236 235 230 228 226 225 224 223 221 217 216 217 218 218 218 218 217 216 216 218 221 220 220 220 219 219 220 222 221 221 224 225 225 225 225 226 228 231 224 217 230 241 243 241 240 239 235 226 228 234 237 242 245 244 245 251 259 262 258 251 251
316 312 309 306 303 300 296 291 287 286 285 284 284 283 283 282 279 275 267 256 248 251 248 241 237 232 230 235 236 231 226 224 223 221 221 221 219 216 216 217 217 217 216 216 217 218 220 220 218 217 217 216 217 218 221 220 220 222 222 224 225 223 222 222 224 217 209 222 235 241 245 244 240 236 226 223 229 233 236 238 240 245 253 260 265 263 254 249
315 311 308 305 302 301 298 292 289 287 285 284 283 283 283 282 281 276 270 258 247 248 249 242 236 232 229 232 234 230 225 222 221 219 218 218 216 216 216 215 215 215 216 216 217 219 221 220 217 217 217 217 217 217 219 220 221 221 220 221 223 223 222 217 215 213 207 217 229 234 243 248 244 237 225 222 227 231 233 236 238 244 252 259 263 264 261 254
315 310 307 304 301 300 297 294 291 289 288 287 286 286 284 281 279 274 269 260 249 247 247 241 236 231 228 231 231 229 225 220 219 218 217 215 213 214 215 214 214 214 214 214 216 217 218 217 215 216 217 217 217 217 218 219 219 219 217 219 220 220 220 210 201 205 208 218 226 228 237 246 248 240 221 219 225 229 233 237 240 243 248 253 254 254 258 258
319 314 309 304 302 300 299 297 295 294 293 292 289 286 282 277 274 274 270 260 250 247 244 238 235 230 227 228 228 226 224 218 217 218 216 215 212 211 213 213 213 213 211 211 213 214 214 213 212 213 214 214 216 216 216 217 218 217 215 216 217 216 213 201 188 191 200 218 231 235 238 243 250 247 222 216 223 226 231 238 241 243 245 249 248 245 252 259
326 322 316 310 305 303 303 302 300 299 297 294 291 287 281 273 267 273 273 261 249 243 239 233 230 227 224 224 223 222 220 215 214 214 214 214 212 209 210 211 211 211 208 207 210 212 211 211 209 210 211 212 214 215 213 215 217 215 211 211 211 210 209 196 179 180 191 219 239 241 240 239 244 247 227 215 221 227 233 240 244 246 248 251 252 251 255 258
334 331 328 322 317 315 313 309 306 304 301 297 294 289 279 269 262 269 273 252 200 202 229 227 222 221 219 219 219 217 214 210 209 209 210 212 210 208 208 208 208 208 207 206 209 210 209 209 207 208 210 210 212 213 213 214 215 211 205 206 203 200 207 195 173 178 196 218 233 234 236 236 233 234 229 220 221 228 234 240 246 250 253 256 259 260 257 254
342 341 340 338 337 335 329 321 316 314 312 308 305 293 272 265 263 262 238 148 133 145 191 212 214 215 213 212 212 211 208 205 203 203 206 208 208 208 207 206 206 205 206 206 207 208 208 208 207 208 210 211 211 211 212 213 212 207 199 201 197 192 203 195 174 182 203 212 219 225 231 236 232 230 233 229 226 228 234 239 245 251 255 258 261 261 253 249
349 348 348 348 349 348 344 341 340 342 349 354 350 335 276 255 259 226 158 132 114 113 131 177 214 207 205 206 204 203 203 200 198 199 201 202 205 207 206 204 203 201 202 204 206 206 206 208 208 208 209 211 211 209 210 212 209 202 196 197 193 188 195 191 180 186 204 210 216 223 230 238 243 243 239 234 231 232 238 243 245 249 253 257 259 254 249 248
357 355 355 354 354 356 0 6 13 11 8 6 360 2 38 109 102 116 126 118 98 122 143 171 208 194 197 200 195 192 195 195 194 196 197 197 199 203 204 203 201 200 199 200 204 204 202 206 208 206 206 207 208 207 208 210 205 197 195 195 191 187 187 185 185 191 201 210 217 225 232 239 248 247 236 234 237 236 241 247 245 249 256 258 255 247 244 247
8 5 4 6 9 14 22 30 36 34 36 41 46 61 72 71 70 72 70 43 25 159 175 183 191 192 191 192 187 184 190 193 192 194 195 195 196 198 202 203 201 202 200 198 201 202 201 204 206 206 205 204 206 204 202 205 201 195 196 194 186 185 187 185 189 195 201 208 212 218 227 233 243 245 225 225 236 238 243 253 249 251 259 258 251 245 243 245
22 24 27 33 37 39 42 48 53 53 52 52 53 55 54 51 43 35 28 12 2 343 211 183 182 190 186 183 179 178 186 191 190 191 192 192 195 194 197 202 200 201 203 199 197 199 200 200 204 206 203 203 205 202 201 202 199 195 198 196 185 183 189 191 193 197 199 203 205 211 223 229 236 241 218 213 229 234 237 247 250 251 255 255 249 243 241 244
37 44 44 42 40 39 40 43 47 45 41 38 37 35 32 32 27 24 25 14 7 12 166 173 175 179 173 176 174 172 181 188 188 190 189 188 192 192 193 198 198 197 200 198 195 198 200 199 201 204 202 202 204 203 203 203 201 197 196 197 188 184 192 195 195 198 198 201 205 211 224 228 229 233 225 220 229 230 227 233 241 244 246 247 244 239 238 240
38 46 40 33 31 31 32 33 31 30 29 28 27 26 23 21 19 21 26 21 26 83 144 159 164 154 151 171 173 169 175 186 188 188 187 187 190 192 192 194 196 196 197 197 196 197 202 203 202 203 204 201 201 203 201 200 203 199 190 193 192 188 196 201 198 199 200 203 208 212 220 223 221 221 225 231 234 229 225 227 233 239 244 243 242 241 237 235
25 32 31 31 33 32 31 30 26 26 27 25 22 19 17 14 16 26 30 29 57 130 144 146 148 144 149 168 173 170 172 182 187 187 186 186 188 189 191 192 194 196 196 195 196 196 199 204 204 203 204 202 202 206 204 202 203 195 186 193 194 188 198 208 205 205 205 204 209 213 217 217 211 209 211 219 226 225 224 227 231 237 242 242 240 238 233 233
17 21 25 30 33 31 30 27 22 22 21 20 17 14 18 21 26 33 34 45 99 139 139 137 138 138 149 163 166 169 172 178 185 186 185 185 186 187 188 190 192 196 196 192 192 195 196 201 204 202 202 201 197 197 200 202 201 195 192 193 187 182 197 210 209 208 207 206 210 213 214 213 209 206 206 208 213 218 224 228 230 234 238 239 239 234 230 234
13 14 17 22 25 25 25 20 18 18 15 15 16 18 23 25 29 36 39 59 115 142 138 142 145 142 152 159 157 160 168 176 182 184 185 186 187 186 186 187 189 194 196 188 184 190 191 191 197 197 197 196 188 184 193 199 197 196 195 188 181 184 196 204 208 208 206 207 211 214 211 206 203 206 209 209 211 216 225 229 229 235 238 236 236 232 227 233
12 12 13 16 17 18 18 15 16 15 12 15 17 20 22 20 27 37 49 92 134 146 136 139 148 148 157 158 153 153 160 173 182 181 183 186 187 187 186 185 185 189 193 185 176 181 185 181 184 191 193 189 183 185 196 201 198 194 187 184 187 190 194 200 205 207 208 210 212 213 211 206 202 204 208 211 215 218 226 231 232 236 237 231 233 235 228 231
10 12 14 16 18 20 20 19 17 14 15 17 17 19 20 20 28 33 53 132 147 146 134 131 141 146 156 160 157 154 151 158 184 182 182 185 187 188 186 182 181 185 191 184 170 172 184 187 187 191 193 191 190 196 201 198 195 193 184 183 192 195 193 199 203 202 207 214 215 214 215 214 212 214 214 215 221 225 230 235 238 240 239 237 239 240 235 236
8 11 13 15 18 22 24 24 23 19 17 17 19 23 26 28 32 27 61 150 151 144 136 135 144 146 152 158 158 156 150 147 176 181 180 183 186 188 187 181 175 179 186 181 168 166 182 194 195 196 201 203 201 202 204 199 193 194 187 184 194 198 193 197 201 200 201 210 217 218 218 218 216 221 223 221 225 230 234 239 242 244 245 244 243 241 240 240
9 10 10 11 13 17 23 26 27 27 27 23 23 28 33 35 31 20 96 157 151 146 143 141 147 145 149 159 160 154 148 145 162 172 175 180 184 185 186 180 172 174 179 175 166 164 179 196 200 203 211 214 208 201 208 206 194 191 187 183 194 200 198 198 198 200 204 205 215 222 221 218 215 220 226 226 228 232 235 239 242 246 249 246 243 241 241 241
9 9 7 7 9 11 19 25 28 34 39 36 29 32 39 41 31 22 90 143 142 147 151 143 144 147 153 165 165 150 138 139 156 162 164 175 181 182 184 177 170 173 175 171 166 165 176 194 198 195 192 199 200 195 202 201 186 184 185 183 192 200 201 200 193 193 205 202 206 219 219 216 213 215 221 226 232 235 237 240 242 247 249 244 241 241 239 241
6 9 9 7 7 8 13 21 27 34 40 45 44 46 50 47 37 44 89 122 137 149 151 141 144 154 161 168 166 150 132 132 148 152 150 171 181 180 181 175 170 172 174 172 170 167 174 190 191 184 169 167 179 182 186 187 180 184 190 188 191 197 201 198 189 185 190 190 203 218 219 213 209 210 216 221 231 236 238 240 240 244 246 243 243 241 238 243
5 8 11 12 10 10 11 15 22 28 33 39 45 50 52 50 48 70 101 110 127 142 144 138 141 149 154 157 155 148 137 133 142 144 139 163 180 181 178 173 171 173 171 169 168 169 176 186 188 191 185 180 184 185 185 185 182 187 193 191 189 192 200 200 192 187 184 188 204 215 219 218 210 210 213 217 226 233 236 240 240 244 248 247 247 245 239 243
8 9 12 15 16 16 13 12 13 17 22 28 36 44 48 47 51 80 111 115 123 136 136 131 135 141 143 143 145 144 140 136 140 139 133 151 175 181 178 174 173 173 171 166 161 168 183 188 188 197 200 196 196 192 190 191 191 192 190 187 185 184 193 204 197 190 188 196 210 211 212 219 213 212 216 219 226 232 234 239 242 246 252 251 251 247 240 239
9 11 13 15 18 20 19 16 12 9 12 18 24 34 46 49 49 63 90 107 121 134 134 129 134 141 140 139 145 147 139 138 141 135 127 142 170 178 178 176 174 170 172 171 161 170 188 192 190 195 198 200 203 197 195 199 202 201 193 188 187 181 185 199 198 193 195 203 212 211 208 211 212 213 216 219 227 232 235 238 237 237 242 249 251 246 238 236
6 13 18 19 19 20 21 21 19 13 7 7 11 25 49 62 61 64 69 78 108 129 134 131 133 142 141 138 147 151 145 143 142 133 130 142 161 170 174 176 174 170 171 172 165 173 187 189 189 193 191 194 197 194 196 199 202 204 199 196 192 183 184 191 190 193 201 206 212 213 209 210 214 216 218 220 225 232 236 239 238 236 239 247 249 243 241 240
6 9 17 22 21 21 20 20 23 20 10 8 16 31 48 57 68 86 87 82 108 131 135 131 129 136 141 143 151 154 149 145 141 136 141 149 156 162 167 172 174 175 178 175 170 177 186 186 186 188 186 180 174 177 189 194 197 200 200 197 191 187 189 190 186 191 203 210 215 215 213 214 217 220 223 225 226 230 234 236 235 232 234 240 241 238 241 242
9 7 12 17 20 22 21 19 21 23 20 19 28 42 50 57 77 102 102 91 106 129 132 126 123 130 138 145 154 158 157 156 152 149 154 158 159 163 170 174 177 180 183 181 179 181 183 182 178 178 178 170 156 162 186 197 201 199 196 192 185 188 192 189 184 193 204 211 216 215 214 218 221 221 223 226 227 229 230 230 227 223 223 226 228 230 235 238
10 11 12 12 17 22 22 21 22 26 30 31 37 50 60 73 88 102 106 98 105 124 126 117 116 138 144 147 155 161 164 166 167 164 167 171 170 170 174 177 181 185 185 186 188 187 184 184 181 179 178 169 157 162 182 197 207 202 197 194 187 188 194 190 186 196 204 206 212 214 214 219 224 224 225 229 232 232 230 229 227 224 221 223 225 228 232 235
9 11 12 9 14 22 24 23 24 28 33 35 43 55 60 74 86 101 126 125 124 134 132 115 116 139 153 155 158 163 164 168 174 174 174 179 182 181 179 178 183 187 188 190 193 190 187 190 189 184 179 168 160 164 177 190 202 205 202 200 193 191 196 193 190 198 205 204 205 210 213 219 224 225 224 226 230 232 230 229 229 228 226 225 225 227 231 234
Height
5725 5724 5723 5722 5721 5720 5719 5719 5719 5718 5718 5718 5718 5718 5719 5719 5720 5721 5722 5723 5724 5725 5726 5727 5728 5729 5731 5732 5733 5735 5738 5740 5741 5744 5748 5751 5751 5754 5758 5761 5762 5765 5768 5770 5773 5775 5778 5781 5784 5786 5789 5791 5794 5798 5799 5801 5802 5802 5804 5806 5808 5811 5815 5820 5823 5825 5828 5831 5834 5837 5842 5844 5846 5847 5846 5847 5847 5848 5846 5848 5851 5851 5853 5853 5854 5855 5855 5856
5720 5718 5717 5716 5715 5714 5713 5713 5712 5712 5711 5711 5711 5711 5711 5712 5713 5713 5714 5715 5717 5718 5720 5721 5722 5723 5725 5726 5727 5729 5732 5734 5736 5739 5742 5744 5745 5748 5752 5755 5757 5759 5762 5765 5768 5770 5772 5776 5779 5781 5783 5786 5789 5793 5794 5796 5797 5797 5801 5802 5805 5811 5815 5818 5821 5822 5825 5827 5831 5833 5837 5840 5843 5843 5843 5841 5840 5840 5842 5846 5847 5846 5851 5852 5852 5854 5854 5853
5714 5713 5711 5710 5709 5708 5707 5707 5706 5705 5705 5704 5704 5704 5704 5705 5705 5706 5707 5708 5709 5710 5712 5714 5715 5717 5718 5720 5721 5724 5726 5728 5731 5733 5735 5736 5738 5742 5745 5748 5751 5753 5756 5760 5763 5766 5768 5770 5772 5775 5777 5780 5784 5787 5789 5791 5792 5794 5796 5798 5804 5810 5812 5815 5817 5819 5822 5824 5827 5830 5833 5836 5838 5838 5837 5836 5833 5834 5840 5845 5842 5843 5849 5849 5848 5851 5851 5850
5708 5706 5705 5704 5703 5701 5701 5700 5699 5699 5698 5698 5697 5697 5697 5697 5697 5698 5700 5701 5703 5704 5705 5707 5708 5710 5711 5713 5715 5717 5720 5722 5725 5727 5728 5729 5732 5736 5738 5741 5745 5748 5751 5754 5758 5760 5763 5764 5766 5769 5771 5774 5778 5781 5784 5787 5789 5791 5793 5797 5804 5807 5807 5811 5814 5816 5819 5820 5823 5828 5831 5832 5832 5832 5832 5831 5830 5832 5838 5841 5839 5841 5845 5844 5845 5847 5847 5848
5701 5700 5698 5697 5696 5695 5694 5693 5692 5692 5691 5691 5690 5690 5690 5690 5690 5691 5692 5693 5695 5697 5698 5700 5702 5703 5704 5706 5708 5710 5714 5716 5718 5720 5722 5723 5725 5729 5733 5736 5740 5743 5745 5748 5752 5755 5757 5759 5761 5764 5766 5770 5773 5775 5780 5783 5785 5787 5790 5796 5801 5801 5804 5809 5811 5813 5815 5817 5821 5825 5826 5826 5825 5825 5827 5826 5828 5832 5834 5837 5836 5837 5840 5841 5843 5843 5844 5844
5695 5693 5691 5690 5689 5687 5686 5685 5684 5684 5683 5683 5683 5683 5683 5683 5683 5683 5684 5685 5687 5689 5690 5693 5695 5696 5698 5700 5701 5704 5706 5708 5711 5714 5716 5718 5720 5724 5727 5730 5734 5736 5739 5742 5746 5749 5752 5755 5757 5759 5762 5765 5768 5772 5776 5779 5781 5783 5788 5793 5796 5797 5801 5806 5808 5809 5812 5814 5817 5820 5821 5822 5820 5820 5822 5823 5827 5830 5831 5835 5834 5833 5836 5837 5839 5839 5840 5841
5688 5686 5685 5683 5681 5680 5679 5678 5677 5676 5675 5675 5675 5675 5675 5675 5675 5676 5677 5678 5679 5681 5682 5685 5687 5689 5691 5693 5695 5697 5700 5702 5704 5707 5710 5713 5716 5718 5720 5724 5727 5730 5733 5737 5740 5744 5748 5750 5752 5755 5758 5760 5764 5768 5771 5775 5777 5780 5784 5788 5791 5794 5798 5802 5804 5806 5808 5809 5812 5814 5815 5817 5816 5816 5818 5822 5828 5827 5828 5833 5831 5830 5833 5833 5834 5835 5836 5838
5680 5678 5677 5675 5673 5672 5670 5669 5669 5668 5667 5667 5667 5666 5667 5667 5667 5668 5669 5670 5672 5673 5675 5676 5679 5682 5683 5686 5689 5690 5695 5698 5697 5700 5703 5707 5709 5711 5714 5717 5721 5725 5728 5731 5735 5739 5742 5745 5747 5750 5753 5756 5760 5763 5767 5770 5772 5776 5781 5784 5787 5790 5795 5798 5800 5803 5805 5806 5807 5809 5808 5811 5813 5814 5817 5822 5827 5824 5825 5830 5827 5826 5830 5829 5830 5832 5832 5835
5672 5670 5668 5666 5665 5663 5662 5661 5660 5659 5658 5658 5658 5658 5658 5658 5659 5660 5660 5662 5663 5664 5667 5668 5671 5674 5675 5679 5681 5685 5692 5691 5689 5691 5695 5699 5702 5704 5707 5710 5714 5719 5722 5725 5729 5732 5736 5739 5743 5746 5749 5752 5755 5759 5762 5764 5768 5773 5777 5780 5782 5785 5791 5794 5796 5799 5801 5802 5803 5805 5806 5808 5811 5813 5817 5821 5824 5822 5822 5826 5824 5823 5826 5826 5827 5829 5829 5832
5664 5662 5659 5657 5656 5654 5653 5652 5651 5650 5649 5649 5649 5649 5649 5649 5650 5651 5652 5653 5654 5656 5658 5660 5663 5665 5668 5672 5673 5681 5686 5681 5682 5686 5689 5694 5698 5700 5702 5705 5708 5712 5716 5719 5723 5727 5731 5735 5739 5742 5744 5747 5750 5753 5757 5760 5764 5769 5772 5774 5777 5781 5786 5789 5792 5795 5797 5797 5798 5800 5803 5805 5809 5812 5815 5820 5820 5820 5821 5822 5821 5820 5821 5823 5825 5826 5826 5829
5656 5653 5651 5649 5647 5645 5644 5643 5642 5641 5640 5640 5640 5640 5640 5641 5641 5642 5643 5644 5645 5647 5649 5651 5654 5656 5661 5663 5667 5677 5676 5672 5677 5679 5683 5690 5695 5697 5698 5700 5703 5707 5711 5714 5718 5722 5727 5731 5734 5736 5738 5742 5746 5749 5752 5756 5761 5764 5766 5769 5772 5776 5780 5784 5787 5791 5792 5793 5794 5797 5799 5803 5806 5808 5812 5817 5818 5819 5820 5820 5820 5818 5817 5820 5822 5821 5823 5826
5647 5645 5642 5640 5638 5637 5635 5634 5633 5632 5631 5631 5631 5631 5631 5632 5632 5633 5634 5635 5636 5638 5640 5643 5645 5649 5652 5655 5664 5670 5665 5665 5671 5672 5676 5684 5689 5691 5693 5696 5699 5702 5707 5710 5714 5717 5721 5725 5727 5730 5733 5738 5742 5745 5749 5753 5756 5758 5761 5764 5767 5770 5774 5779 5783 5786 5788 5789 5792 5793 5794 5799 5804 5807 5811 5814 5815 5817 5818 5817 5819 5817 5814 5816 5817 5817 5821 5823
5639 5636 5634 5632 5630 5628 5626 5625 5623 5623 5622 5622 5622 5622 5622 5622 5622 5624 5625 5626 5627 5629 5632 5634 5637 5641 5643 5650 5659 5658 5656 5660 5663 5665 5671 5677 5683 5684 5686 5690 5693 5698 5702 5705 5709 5712 5716 5719 5722 5725 5729 5733 5737 5740 5745 5749 5751 5754 5757 5759 5762 5764 5768 5774 5778 5780 5783 5786 5789 5788 5790 5796 5802 5806 5809 5811 5812 5813 5815 5815 5816 5813 5810 5811 5811 5812 5815 5817
5630 5627 5625 5622 5620 5619 5617 5616 5614 5613 5613 5613 5613 5612 5612 5613 5613 5614 5615 5616 5618 5620 5623 5626 5629 5632 5636 5646 5651 5647 5648 5653 5655 5661 5666 5671 5677 5678 5679 5684 5687 5691 5696 5699 5703 5706 5710 5714 5717 5720 5724 5728 5732 5736 5741 5743 5746 5750 5753 5754 5755 5757 5763 5770 5772 5775 5778 5782 5785 5784 5787 5794 5799 5803 5806 5808 5809 5810 5811 5812 5811 5808 5805 5806 5807 5807 5810 5813
5622 5619 5616 5613 5611 5610 5608 5607 5605 5604 5604 5604 5604 5603 5603 5603 5603 5604 5606 5607 5609 5612 5615 5618 5622 5624 5629 5640 5642 5637 5642 5647 5650 5655 5659 5663 5669 5672 5674 5678 5682 5686 5689 5693 5697 5700 5704 5708 5711 5715 5719 5724 5728 5732 5735 5738 5740 5744 5746 5746 5749 5753 5759 5764 5768 5772 5775 5779 5781 5781 5785 5791 5796 5800 5803 5805 5805 5806 5807 5806 5805 5803 5802 5804 5804 5806 5810 5813
5613 5610 5607 5605 5602 5600 5599 5598 5596 5595 5595 5595 5594 5593 5593 5593 5593 5595 5596 5598 5600 5604 5608 5611 5613 5615 5623 5632 5633 5632 5637 5642 5644 5646 5651 5656 5662 5666 5667 5671 5677 5680 5683 5687 5691 5695 5699 5702 5706 5710 5715 5719 5723 5727 5731 5733 5735 5737 5739 5742 5746 5750 5755 5760 5764 5770 5774 5776 5776 5778 5782 5788 5793 5797 5800 5801 5801 5803 5803 5800 5801 5802 5802 5802 5802 5807 5811 5813
5606 5603 5600 5597 5594 5592 5590 5589 5587 5586 5585 5585 5585 5584 5583 5582 5583 5585 5586 5588 5592 5596 5599 5603 5604 5608 5617 5624 5624 5626 5629 5633 5637 5638 5644 5650 5655 5660 5661 5665 5671 5674 5678 5682 5685 5690 5693 5697 5701 5705 5710 5714 5718 5722 5724 5726 5729 5732 5735 5739 5743 5748 5751 5756 5762 5767 5771 5773 5773 5776 5780 5784 5789 5794 5797 5797 5797 5799 5798 5796 5798 5800 5801 5800 5801 5807 5810 5811
5599 5596 5593 5590 5587 5585 5583 5581 5579 5577 5577 5577 5576 5575 5574 5572 5574 5576 5576 5579 5584 5587 5591 5594 5596 5601 5610 5613 5614 5618 5621 5626 5631 5632 5637 5644 5649 5652 5655 5660 5664 5668 5672 5675 5679 5684 5687 5692 5696 5700 5704 5708 5712 5714 5716 5721 5726 5729 5733 5737 5742 5745 5749 5754 5760 5765 5768 5770 5772 5773 5776 5781 5786 5790 5794 5794 5793 5794 5793 5793 5796 5797 5799 5800 5802 5805 5807 5809
5593 5590 5586 5583 5580 5578 5575 5573 5571 5569 5569 5568 5567 5567 5566 5564 5565 5566 5566 5571 5575 5578 5581 5584 5588 5595 5601 5602 5605 5609 5613 5618 5622 5626 5631 5637 5642 5645 5649 5654 5657 5661 5665 5669 5674 5678 5683 5687 5690 5693 5697 5702 5706 5709 5714 5720 5724 5728 5733 5737 5741 5744 5748 5753 5758 5762 5765 5766 5769 5771 5773 5778 5784 5787 5791 5791 5788 5788 5789 5791 5793 5794 5796 5799 5801 5803 5804 5806
5587 5583 5579 5576 5573 5570 5568 5565 5563 5561 5561 5560 5559 5559 5558 5556 5556 5556 5558 5562 5566 5568 5571 5575 5580 5587 5591 5592 5597 5602 5606 5610 5614 5619 5624 5629 5636 5640 5643 5647 5651 5655 5659 5664 5670 5674 5678 5681 5685 5689 5694 5699 5704 5709 5713 5718 5723 5727 5730 5734 5738 5741 5745 5751 5755 5759 5762 5762 5765 5770 5771 5775 5779 5783 5788 5787 5784 5785 5786 5789 5791 5791 5793 5796 5799 5802 5802 5803
5580 5575 5571 5568 5565 5562 5560 5557 5555 5553 5553 5552 5551 5550 5549 5548 5547 5547 5549 5554 5557 5558 5562 5567 5570 5578 5583 5583 5588 5595 5599 5605 5610 5613 5617 5622 5628 5632 5637 5641 5645 5650 5655 5661 5665 5670 5673 5676 5681 5687 5693 5699 5703 5707 5710 5715 5720 5723 5726 5730 5735 5739 5743 5748 5752 5757 5761 5759 5760 5766 5770 5772 5775 5780 5785 5782 5780 5782 5784 5786 5789 5789 5790 5793 5796 5800 5800 5802
5573 5568 5564 5561 5558 5555 5552 5549 5547 5546 5545 5544 5543 5542 5541 5539 5539 5538 5539 5545 5549 5549 5553 5558 5562 5570 5576 5575 5579 5586 5592 5599 5604 5608 5613 5617 5622 5627 5632 5636 5641 5646 5651 5655 5659 5663 5667 5671 5678 5685 5690 5695 5700 5703 5706 5711 5716 5719 5723 5728 5731 5736 5741 5745 5748 5754 5759 5757 5757 5762 5766 5768 5772 5777 5780 5777 5777 5780 5781 5783 5785 5786 5788 5790 5794 5797 5799 5800
5566 5561 5557 5554 5551 5548 5545 5541 5539 5539 5537 5536 5535 5534 5533 5531 5530 5529 5530 5535 5542 5544 5544 5550 5555 5561 5568 5569 5570 5577 5585 5592 5597 5602 5608 5612 5619 5624 5626 5632 5638 5642 5646 5650 5655 5659 5663 5669 5677 5682 5686 5690 5695 5699 5702 5707 5711 5715 5720 5724 5728 5733 5737 5741 5746 5751 5755 5755 5756 5759 5762 5765 5769 5772 5773 5773 5775 5777 5778 5780 5782 5783 5786 5788 5791 5794 5796 5798
5560 5555 5550 5546 5543 5540 5537 5533 5532 5530 5529 5528 5527 5526 5525 5524 5522 5521 5522 5525 5535 5539 5536 5540 5547 5553 5561 5562 5561 5568 5579 5585 5590 5597 5602 5607 5614 5618 5622 5628 5633 5637 5642 5648 5653 5657 5663 5670 5676 5679 5683 5688 5692 5695 5699 5703 5707 5712 5717 5721 5725 5730 5733 5739 5745 5749 5753 5753 5755 5758 5759 5761 5765 5768 5769 5770 5773 5774 5775 5777 5779 5781 5784 5786 5788 5791 5794 5795
5553 5547 5543 5539 5535 5533 5530 5526 5524 5523 5522 5520 5519 5518 5516 5516 5515 5513 5515 5519 5527 5530 5528 5533 5540 5546 5551 5551 5553 5563 5570 5578 5586 5592 5596 5601 5608 5613 5618 5623 5627 5634 5640 5645 5649 5654 5660 5667 5672 5677 5681 5685 5688 5692 5696 5701 5705 5709 5714 5718 5724 5729 5732 5737 5742 5748 5750 5750 5751 5755 5757 5758 5761 5764 5766 5768 5769 5771 5772 5774 5777 5779 5782 5784 5787 5790 5791 5792
5545 5540 5535 5531 5528 5526 5523 5520 5517 5516 5515 5513 5511 5509 5508 5509 5508 5507 5509 5514 5519 5521 5522 5527 5533 5537 5541 5543 5549 5555 5564 5576 5584 5587 5591 5597 5603 5608 5612 5617 5624 5631 5636 5641 5646 5650 5656 5662 5668 5672 5676 5680 5684 5688 5693 5698 5701 5706 5712 5718 5723 5727 5730 5734 5740 5746 5748 5748 5749 5752 5755 5757 5758 5761 5765 5766 5766 5768 5770 5772 5775 5777 5780 5782 5785 5788 5790 5791
5539 5533 5528 5524 5521 5520 5518 5515 5511 5510 5508 5506 5504 5503 5503 5503 5505 5504 5505 5509 5513 5515 5517 5521 5525 5530 5534 5536 5542 5550 5562 5573 5575 5579 5588 5593 5597 5602 5607 5614 5621 5626 5632 5637 5640 5645 5652 5658 5663 5667 5672 5676 5679 5684 5689 5693 5697 5704 5712 5717 5721 5725 5729 5732 5737 5743 5747 5749 5749 5749 5752 5756 5757 5758 5762 5764 5764 5765 5767 5770 5773 5776 5778 5780 5783 5787 5789 5789
5535 5529 5524 5520 5517 5515 5514 5511 5507 5504 5503 5501 5500 5499 5499 5500 5502 5502 5503 5506 5510 5511 5514 5517 5520 5523 5526 5531 5539 5548 5557 5562 5567 5576 5584 5587 5592 5597 5603 5610 5617 5622 5627 5631 5637 5644 5648 5652 5658 5664 5668 5671 5676 5682 5687 5691 5696 5703 5711 5715 5719 5724 5728 5731 5735 5739 5744 5747 5746 5746 5748 5751 5754 5756 5758 5760 5762 5763 5766 5769 5772 5774 5776 5778 5781 5785 5786 5786
5532 5527 5522 5519 5516 5513 5510 5507 5503 5501 5500 5499 5498 5497 5498 5499 5500 5500 5502 5505 5508 5509 5512 5514 5516 5518 5521 5527 5534 5542 5548 5555 5563 5570 5575 5581 5589 5595 5601 5607 5613 5618 5624 5630 5636 5640 5645 5651 5658 5662 5665 5670 5675 5681 5685 5689 5694 5702 5709 5713 5717 5722 5727 5731 5733 5735 5740 5741 5741 5743 5743 5746 5750 5754 5755 5755 5757 5760 5764 5768 5770 5772 5774 5776 5779 5782 5783 5783
5532 5527 5523 5520 5516 5513 5509 5503 5501 5500 5499 5499 5498 5497 5498 5498 5498 5499 5501 5504 5506 5508 5511 5513 5514 5515 5519 5524 5530 5537 5545 5551 5556 5561 5569 5579 5586 5592 5598 5603 5608 5614 5621 5628 5632 5637 5645 5651 5655 5659 5664 5670 5675 5680 5683 5687 5693 5701 5707 5710 5715 5720 5725 5729 5731 5732 5734 5734 5737 5740 5742 5744 5747 5751 5752 5751 5754 5759 5762 5766 5768 5770 5772 5774 5777 5779 5780 5781
5532 5528 5524 5521 5518 5515 5509 5504 5502 5501 5501 5500 5500 5499 5499 5499 5499 5501 5503 5505 5506 5508 5510 5512 5514 5515 5517 5521 5526 5533 5540 5545 5550 5558 5565 5572 5579 5587 5593 5597 5603 5610 5616 5623 5628 5635 5643 5646 5651 5657 5663 5668 5672 5677 5681 5686 5692 5698 5702 5705 5711 5718 5722 5724 5726 5727 5727 5728 5733 5739 5741 5742 5742 5745 5748 5749 5752 5756 5759 5763 5766 5768 5770 5772 5774 5776 5777 5778
5534 5529 5525 5522 5520 5517 5512 5507 5505 5505 5504 5503 5503 5502 5502 5503 5503 5504 5505 5506 5506 5508 5509 5511 5512 5513 5516 5520 5524 5531 5536 5541 5548 5555 5562 5569 5576 5583 5589 5595 5602 5608 5613 5619 5626 5633 5638 5642 5648 5654 5659 5664 5668 5673 5678 5682 5687 5693 5696 5700 5707 5714 5717 5718 5720 5721 5722 5725 5731 5735 5738 5739 5738 5742 5747 5748 5749 5753 5757 5761 5764 5765 5768 5770 5771 5773 5775 5775
5537 5532 5529 5526 5524 5521 5517 5513 5511 5510 5509 5508 5507 5507 5507 5507 5507 5507 5507 5507 5507 5508 5508 5509 5511 5513 5515 5520 5525 5529 5534 5540 5547 5553 5560 5568 5574 5580 5587 5594 5600 5607 5613 5618 5623 5628 5634 5640 5645 5649 5655 5661 5664 5669 5673 5675 5681 5687 5690 5695 5702 5707 5710 5712 5715 5717 5720 5725 5730 5733 5736 5737 5736 5740 5745 5746 5747 5751 5756 5759 5761 5763 5766 5767 5769 5771 5772 5773
5542 5537 5534 5532 5529 5526 5523 5520 5517 5515 5514 5512 5511 5511 5510 5509 5509 5509 5509 5509 5509 5509 5509 5510 5513 5514 5516 5520 5524 5527 5533 5539 5546 5551 5557 5564 5571 5577 5584 5591 5598 5606 5612 5617 5621 5626 5631 5635 5640 5646 5652 5657 5662 5667 5671 5674 5679 5684 5689 5694 5700 5704 5707 5710 5714 5717 5720 5725 5728 5731 5732 5733 5736 5740 5744 5745 5747 5750 5754 5756 5758 5760 5762 5764 5767 5768 5770 5772
5548 5543 5539 5536 5534 5531 5528 5524 5521 5519 5517 5516 5515 5514 5512 5512 5511 5511 5511 5510 5510 5510 5512 5514 5515 5517 5518 5521 5525 5528 5533 5540 5545 5550 5556 5562 5570 5576 5583 5590 5598 5604 5608 5614 5620 5625 5631 5635 5640 5645 5650 5655 5661 5665 5669 5674 5677 5683 5690 5693 5697 5702 5706 5710 5714 5717 5720 5723 5725 5727 5729 5731 5736 5740 5742 5744 5745 5747 5750 5752 5754 5756 5759 5762 5765 5767 5770 5772
5552 5548 5544 5541 5538 5534 5531 5528 5525 5523 5521 5520 5518 5516 5515 5514 5514 5513 5513 5512 5512 5513 5514 5515 5517 5518 5520 5522 5526 5530 5534 5540 5545 5550 5556 5562 5569 5576 5583 5590 5596 5602 5607 5614 5621 5625 5630 5635 5640 5645 5650 5656 5661 5665 5669 5672 5676 5682 5686 5689 5694 5700 5704 5708 5712 5716 5719 5720 5722 5724 5727 5730 5734 5738 5740 5742 5743 5743 5746 5748 5751 5753 5755 5760 5764 5766 5768 5770
5556 5552 5548 5545 5541 5538 5535 5532 5529 5526 5524 5523 5521 5520 5518 5518 5517 5516 5516 5514 5514 5515 5516 5517 5519 5520 5522 5523 5528 5532 5536 5541 5547 5552 5557 5563 5568 5575 5582 5588 5596 5602 5608 5614 5621 5626 5631 5635 5640 5645 5650 5655 5659 5663 5667 5671 5675 5680 5683 5687 5694 5699 5702 5704 5709 5713 5715 5717 5719 5722 5726 5730 5732 5735 5738 5740 5741 5741 5742 5745 5747 5750 5753 5759 5763 5765 5767 5768
5559 5555 5552 5548 5545 5542 5539 5536 5532 5529 5527 5525 5524 5523 5521 5520 5519 5519 5518 5517 5517 5517 5518 5520 5521 5523 5524 5526 5530 5534 5538 5542 5547 5553 5559 5564 5569 5575 5581 5588 5596 5603 5609 5615 5621 5627 5632 5636 5641 5644 5647 5652 5656 5659 5663 5667 5672 5677 5684 5690 5693 5695 5698 5701 5704 5708 5711 5713 5716 5720 5725 5728 5730 5733 5735 5738 5739 5739 5739 5741 5744 5748 5753 5759 5762 5763 5765 5765
5560 5557 5554 5551 5547 5544 5541 5538 5534 5532 5529 5528 5526 5525 5523 5522 5521 5520 5520 5520 5521 5521 5521 5522 5523 5525 5527 5529 5533 5536 5540 5545 5549 5553 5560 5565 5571 5576 5582 5588 5595 5603 5609 5613 5619 5628 5633 5636 5639 5643 5646 5651 5654 5657 5660 5665 5670 5675 5682 5689 5692 5693 5696 5699 5702 5705 5708 5712 5715 5719 5722 5726 5728 5731 5733 5736 5737 5737 5737 5739 5743 5747 5752 5757 5760 5762 5763 5762
5562 5559 5555 5552 5548 5545 5542 5539 5536 5534 5532 5530 5529 5527 5525 5524 5523 5523 5524 5524 5524 5524 5525 5526 5527 5528 5530 5532 5535 5537 5542 5548 5551 5555 5560 5566 5572 5578 5582 5588 5596 5604 5610 5613 5617 5626 5632 5635 5637 5640 5644 5648 5651 5655 5659 5663 5668 5672 5677 5683 5687 5690 5694 5698 5701 5704 5707 5710 5714 5717 5719 5723 5726 5728 5732 5734 5735 5735 5736 5738 5742 5746 5750 5755 5758 5761 5761 5761
5563 5560 5557 5553 5550 5547 5544 5541 5539 5537 5535 5533 5531 5529 5528 5527 5526 5526 5526 5525 5526 5527 5528 5529 5530 5531 5532 5535 5538 5541 5544 5548 5552 5556 5561 5566 5572 5578 5583 5590 5597 5603 5609 5613 5616 5622 5629 5633 5635 5638 5641 5645 5651 5657 5660 5663 5667 5671 5675 5679 5684 5687 5691 5695 5698 5701 5704 5707 5711 5714 5717 5721 5724 5726 5729 5732 5732 5733 5734 5737 5741 5743 5748 5752 5755 5757 5759 5760
5565 5562 5559 5556 5552 5549 5546 5544 5542 5539 5537 5535 5533 5532 5531 5530 5529 5529 5528 5528 5528 5529 5530 5531 5533 5534 5536 5538 5541 5544 5547 5549 5552 5558 5563 5567 5573 5580 5586 5592 5598 5603 5609 5613 5615 5620 5627 5630 5633 5637 5640 5645 5652 5658 5661 5664 5667 5671 5674 5677 5682 5686 5688 5691 5696 5700 5703 5706 5709 5712 5716 5719 5722 5724 5726 5729 5730 5731 5732 5734 5737 5740 5744 5748 5750 5753 5756 5758
5567 5564 5561 5557 5554 5552 5549 5547 5544 5542 5539 5537 5536 5535 5534 5533 5532 5532 5531 5531 5532 5532 5533 5534 5536 5537 5539 5542 5545 5548 5550 5553 5555 5559 5564 5570 5575 5581 5587 5593 5598 5602 5608 5613 5615 5619 5624 5627 5632 5637 5641 5646 5652 5657 5662 5664 5666 5669 5673 5675 5679 5683 5687 5691 5696 5700 5703 5707 5709 5711 5713 5716 5719 5722 5724 5726 5727 5728 5729 5732 5735 5737 5740 5743 5745 5749 5753 5756
5568 5566 5563 5559 5557 5554 5551 5550 5548 5545 5543 5540 5539 5538 5538 5537 5536 5534 5534 5535 5535 5535 5536 5538 5539 5540 5542 5545 5548 5551 5554 5557 5559 5561 5566 5572 5576 5581 5588 5593 5598 5603 5608 5613 5615 5618 5622 5625 5630 5634 5637 5641 5646 5651 5656 5659 5660 5665 5671 5674 5677 5682 5687 5692 5696 5699 5702 5706 5708 5710 5711 5714 5716 5720 5722 5723 5724 5725 5727 5730 5733 5735 5736 5738 5741 5746 5751 5753
5570 5567 5564 5561 5558 5556 5553 5552 5550 5548 5546 5544 5542 5541 5540 5540 5539 5538 5538 5538 5538 5538 5540 5541 5542 5543 5545 5547 5551 5554 5556 5559 5561 5562 5566 5574 5578 5582 5588 5593 5597 5603 5609 5613 5615 5618 5621 5624 5629 5631 5632 5636 5639 5642 5647 5652 5656 5661 5667 5673 5676 5680 5686 5691 5693 5696 5699 5703 5706 5708 5710 5711 5713 5716 5719 5721 5722 5724 5726 5729 5731 5733 5734 5736 5739 5743 5748 5750
5571 5568 5566 5563 5560 5557 5555 5553 5552 5550 5549 5548 5546 5544 5543 5543 5542 5541 5541 5541 5541 5542 5543 5544 5545 5546 5548 5550 5553 5556 5558 5560 5563 5565 5568 5574 5579 5583 5588 5593 5598 5605 5610 5611 5613 5618 5621 5624 5628 5631 5634 5638 5642 5645 5649 5653 5657 5659 5664 5670 5675 5678 5684 5688 5691 5694 5697 5701 5704 5706 5707 5708 5710 5713 5716 5718 5720 5722 5725 5728 5729 5731 5732 5735 5737 5741 5744 5746
5572 5570 5568 5565 5562 5560 5557 5555 5553 5552 5551 5550 5549 5547 5546 5545 5545 5544 5544 5544 5544 5544 5546 5547 5548 5549 5551 5553 5556 5559 5560 5562 5564 5566 5569 5575 5580 5584 5589 5594 5600 5605 5608 5609 5613 5618 5621 5624 5628 5632 5636 5641 5645 5649 5653 5655 5657 5660 5664 5668 5673 5677 5682 5685 5689 5693 5696 5698 5701 5703 5704 5705 5707 5710 5712 5715 5718 5720 5723 5725 5728 5730 5731 5733 5736 5739 5741 5743
5573 5571 5569 5567 5564 5562 5560 5558 5556 5554 5553 5552 5551 5550 5549 5548 5548 5547 5547 5547 5546 5547 5548 5550 5551 5553 5554 5556 5558 5561 5562 5563 5565 5567 5570 5575 5580 5585 5590 5595 5601 5604 5606 5609 5613 5617 5620 5624 5628 5632 5637 5641 5645 5649 5652 5654 5658 5661 5664 5667 5672 5676 5680 5682 5687 5692 5695 5697 5699 5700 5701 5702 5704 5707 5709 5711 5715 5717 5720 5722 5725 5728 5730 5732 5734 5737 5739 5740
5574 5572 5570 5568 5567 5565 5562 5561 5559 5558 5556 5555 5554 5553 5551 5551 5550 5549 5549 5550 5550 5551 5552 5553 5554 5555 5556 5558 5560 5562 5564 5566 5567 5569 5572 5575 5579 5584 5589 5594 5599 5602 5605 5609 5613 5616 5619 5624 5628 5633 5637 5640 5644 5648 5651 5654 5657 5660 5663 5667 5671 5675 5678 5680 5684 5689 5692 5695 5697 5698 5699 5700 5702 5704 5706 5708 5711 5714 5717 5719 5722 5724 5727 5729 5731 5734 5736 5738
5576 5574 5572 5570 5568 5566 5564 5563 5561 5560 5558 5557 5556 5555 5554 5553 5552 5552 5552 5552 5552 5554 5555 5556 5557 5558 5558 5560 5561 5564 5567 5568 5569 5570 5573 5576 5579 5584 5589 5593 5597 5601 5605 5610 5612 5614 5619 5624 5628 5633 5636 5638 5642 5647 5651 5653 5656 5658 5661 5665 5669 5673 5677 5679 5682 5686 5689 5691 5694 5696 5697 5697 5698 5701 5704 5706 5709 5712 5714 5717 5719 5721 5723 5726 5728 5731 5733 5735
5577 5575 5573 5571 5569 5568 5566 5565 5563 5562 5560 5559 5558 5557 5556 5556 5555 5555 5554 5555 5555 5557 5558 5559 5560 5561 5561 5562 5563 5566 5568 5569 5571 5573 5574 5577 5580 5583 5587 5593 5598 5602 5606 5609 5612 5615 5619 5623 5627 5631 5634 5637 5640 5644 5649 5652 5654 5657 5660 5663 5666 5670 5674 5677 5680 5684 5686 5688 5691 5693 5694 5694 5695 5698 5702 5704 5707 5710 5713 5715 5718 5720 5722 5724 5726 5728 5730 5732
5578 5576 5574 5572 5571 5569 5568 5567 5565 5564 5563 5561 5560 5559 5559 5558 5558 5557 5557 5557 5558 5559 5560 5561 5561 5562 5563 5564 5565 5567 5569 5570 5572 5575 5577 5580 5584 5586 5588 5593 5598 5602 5606 5609 5612 5615 5619 5623 5627 5631 5634 5636 5639 5643 5647 5650 5652 5655 5658 5661 5664 5667 5670 5673 5677 5681 5683 5686 5688 5690 5691 5692 5693 5696 5700 5703 5705 5708 5711 5714 5716 5718 5720 5722 5724 5726 5728 5730